Time,TemperatureF,DewpointF,PressureIn,WindDirection,WindDirectionDegrees,WindSpeedMPH,WindSpeedGustMPH,Humidity,HourlyPrecipIn,Conditions,Clouds,dailyrainin,SoftwareType,DateUTC
2013-02-04 00:02:00,42.6,39.0,30.12,West,275,0.0,0.0,87,0.00,,CLR,0.00,VWS V14.01,2013-02-04 05:02:00,
2013-02-04 00:03:00,42.5,38.9,30.12,West,275,0.0,0.0,87,0.00,,CLR,0.00,VWS V14.01,2013-02-04 05:03:00,
2013-02-04 00:05:00,42.5,38.9,30.12,West,275,0.0,0.0,87,0.00,,CLR,0.00,VWS V14.01,2013-02-04 05:05:00,
2013-02-04 00:10:00,42.7,39.4,30.12,West,275,0.0,0.0,88,0.00,,CLR,0.00,VWS V14.01,2013-02-04 05:10:00,
2013-02-04 00:15:00,42.9,39.6,30.12,West,275,0.0,0.0,88,0.00,,CLR,0.00,VWS V14.01,2013-02-04 05:15:00,
2013-02-04 00:21:00,43.1,39.5,30.13,West,275,0.0,0.0,87,0.00,,CLR,0.00,VWS V14.01,2013-02-04 05:21:00,
2013-02-04 00:26:00,43.3,39.4,30.13,West,275,0.0,0.0,86,0.00,,CLR,0.00,VWS V14.01,2013-02-04 05:26:00,
2013-02-04 00:31:00,42.6,39.0,30.12,West,275,0.0,0.0,87,0.00,,CLR,0.00,VWS V14.01,2013-02-04 05:31:00,
2013-02-04 00:36:00,41.6,38.3,30.12,West,275,0.0,0.0,88,0.00,,CLR,0.00,VWS V14.01,2013-02-04 05:36:00,
2013-02-04 00:41:00,41.5,38.8,30.12,West,275,0.0,0.0,90,0.00,,CLR,0.00,VWS V14.01,2013-02-04 05:41:00,
2013-02-04 00:46:00,41.9,39.2,30.13,West,275,0.0,0.0,90,0.00,,CLR,0.00,VWS V14.01,2013-02-04 05:46:00,
2013-02-04 00:51:00,41.5,38.5,30.12,West,275,0.0,0.0,89,0.00,,CLR,0.00,VWS V14.01,2013-02-04 05:51:00,
2013-02-04 00:56:00,41.3,38.6,30.12,West,275,0.0,0.0,90,0.00,,CLR,0.00,VWS V14.01,2013-02-04 05:56:00,
2013-02-04 01:01:00,40.9,38.5,30.13,West,275,0.0,0.0,91,0.00,,CLR,0.00,VWS V14.01,2013-02-04 06:01:00,
2013-02-04 01:06:00,40.9,38.8,30.13,West,275,0.0,0.0,92,0.00,,CLR,0.00,VWS V14.01,2013-02-04 06:06:00,
2013-02-04 01:11:00,41.3,39.4,30.13,West,275,0.0,0.0,93,0.00,,CLR,0.00,VWS V14.01,2013-02-04 06:11:00,
2013-02-04 01:16:00,41.1,39.0,30.13,West,275,0.0,0.0,92,0.00,,CLR,0.00,VWS V14.01,2013-02-04 06:16:00,
2013-02-04 01:21:00,41.0,38.9,30.13,West,275,0.0,0.0,92,0.00,,CLR,0.00,VWS V14.01,2013-02-04 06:21:00,
2013-02-04 01:26:00,41.1,39.0,30.13,West,275,0.0,0.0,92,0.00,,CLR,0.00,VWS V14.01,2013-02-04 06:26:00,
2013-02-04 01:31:00,41.3,39.2,30.13,West,275,0.0,0.0,92,0.00,,CLR,0.00,VWS V14.01,2013-02-04 06:31:00,
2013-02-04 01:36:00,41.0,38.6,30.13,West,275,0.0,0.0,91,0.00,,CLR,0.00,VWS V14.01,2013-02-04 06:36:00,
2013-02-04 01:41:00,41.1,39.2,30.13,West,275,0.0,0.0,93,0.00,,CLR,0.00,VWS V14.01,2013-02-04 06:41:00,
2013-02-04 01:46:00,40.9,38.8,30.13,West,275,0.0,0.0,92,0.00,,CLR,0.00,VWS V14.01,2013-02-04 06:46:00,
2013-02-04 01:51:00,40.4,38.3,30.12,West,275,0.0,0.0,92,0.00,,CLR,0.00,VWS V14.01,2013-02-04 06:51:00,
2013-02-04 01:56:00,40.3,38.4,30.12,West,275,0.0,0.0,93,0.00,,CLR,0.00,VWS V14.01,2013-02-04 06:56:00,
2013-02-04 02:01:00,40.3,38.4,30.12,West,275,0.0,0.0,93,0.00,,CLR,0.00,VWS V14.01,2013-02-04 07:01:00,
2013-02-04 02:06:00,40.3,38.4,30.12,West,275,0.0,0.0,93,0.00,,CLR,0.00,VWS V14.01,2013-02-04 07:06:00,
2013-02-04 02:11:00,40.4,38.5,30.12,West,275,0.0,0.0,93,0.00,,CLR,0.00,VWS V14.01,2013-02-04 07:11:00,
2013-02-04 02:16:00,40.4,38.5,30.12,West,275,0.0,0.0,93,0.00,,CLR,0.00,VWS V14.01,2013-02-04 07:16:00,
2013-02-04 02:21:00,39.9,37.8,30.11,West,275,0.0,0.0,92,0.00,,CLR,0.00,VWS V14.01,2013-02-04 07:21:00,
2013-02-04 02:26:00,40.1,38.5,30.11,West,275,0.0,0.0,94,0.00,,CLR,0.00,VWS V14.01,2013-02-04 07:26:00,
2013-02-04 02:31:00,40.3,38.7,30.11,West,275,0.0,0.0,94,0.00,,CLR,0.00,VWS V14.01,2013-02-04 07:31:00,
2013-02-04 02:36:00,40.2,38.6,30.11,West,275,0.0,0.0,94,0.00,,CLR,0.00,VWS V14.01,2013-02-04 07:36:00,
2013-02-04 02:41:00,40.2,38.3,30.11,West,275,0.0,0.0,93,0.00,,CLR,0.00,VWS V14.01,2013-02-04 07:41:00,
2013-02-04 02:46:00,40.1,38.5,30.11,West,275,0.0,0.0,94,0.00,,CLR,0.00,VWS V14.01,2013-02-04 07:46:00,
2013-02-04 02:51:00,39.7,37.8,30.11,West,275,0.0,0.0,93,0.00,,CLR,0.00,VWS V14.01,2013-02-04 07:51:00,
2013-02-04 02:56:00,39.5,37.9,30.11,West,275,0.0,0.0,94,0.00,,CLR,0.00,VWS V14.01,2013-02-04 07:56:00,
2013-02-04 03:01:00,39.3,37.7,30.11,West,275,0.0,0.0,94,0.00,,CLR,0.00,VWS V14.01,2013-02-04 08:01:00,
2013-02-04 03:06:00,39.2,37.6,30.11,West,275,0.0,0.0,94,0.00,,CLR,0.00,VWS V14.01,2013-02-04 08:06:00,
2013-02-04 03:11:00,39.1,37.5,30.12,West,275,0.0,0.0,94,0.00,,CLR,0.00,VWS V14.01,2013-02-04 08:11:00,
2013-02-04 03:16:00,39.4,38.1,30.12,West,275,0.0,0.0,95,0.00,,CLR,0.00,VWS V14.01,2013-02-04 08:16:00,
2013-02-04 03:21:00,39.5,38.2,30.12,West,275,0.0,0.0,95,0.00,,CLR,0.00,VWS V14.01,2013-02-04 08:21:00,
2013-02-04 03:26:00,39.5,38.2,30.12,West,275,0.0,0.0,95,0.00,,CLR,0.00,VWS V14.01,2013-02-04 08:26:00,
2013-02-04 03:31:00,39.2,37.9,30.12,West,275,0.0,0.0,95,0.00,,CLR,0.00,VWS V14.01,2013-02-04 08:31:00,
2013-02-04 03:36:00,39.0,37.7,30.12,West,275,0.0,0.0,95,0.00,,CLR,0.00,VWS V14.01,2013-02-04 08:36:00,
2013-02-04 03:42:00,38.8,37.5,30.12,West,275,0.0,0.0,95,0.00,,CLR,0.00,VWS V14.01,2013-02-04 08:42:00,
2013-02-04 03:47:00,38.7,37.4,30.12,West,275,0.0,0.0,95,0.00,,CLR,0.00,VWS V14.01,2013-02-04 08:47:00,
2013-02-04 03:52:00,38.8,37.8,30.12,West,275,0.0,0.0,96,0.00,,CLR,0.00,VWS V14.01,2013-02-04 08:52:00,
2013-02-04 03:57:00,38.9,37.6,30.11,West,275,0.0,0.0,95,0.00,,CLR,0.00,VWS V14.01,2013-02-04 08:57:00,
2013-02-04 04:02:00,38.8,37.5,30.11,West,275,0.0,0.0,95,0.00,,CLR,0.00,VWS V14.01,2013-02-04 09:02:00,
2013-02-04 04:07:00,38.8,37.5,30.11,West,275,0.0,0.0,95,0.00,,CLR,0.00,VWS V14.01,2013-02-04 09:07:00,
2013-02-04 04:12:00,38.9,37.6,30.11,West,275,0.0,0.0,95,0.00,,CLR,0.00,VWS V14.01,2013-02-04 09:12:00,
2013-02-04 04:17:00,38.8,37.5,30.11,West,275,0.0,0.0,95,0.00,,CLR,0.00,VWS V14.01,2013-02-04 09:17:00,
2013-02-04 04:22:00,38.8,37.8,30.11,West,275,0.0,0.0,96,0.00,,CLR,0.00,VWS V14.01,2013-02-04 09:22:00,
2013-02-04 04:27:00,39.0,38.0,30.11,West,275,0.0,0.0,96,0.00,,CLR,0.00,VWS V14.01,2013-02-04 09:27:00,
2013-02-04 04:32:00,38.5,37.2,30.11,West,275,0.0,0.0,95,0.00,,CLR,0.00,VWS V14.01,2013-02-04 09:32:00,
2013-02-04 04:37:00,38.0,36.7,30.12,West,275,0.0,0.0,95,0.00,,CLR,0.00,VWS V14.01,2013-02-04 09:37:00,
2013-02-04 04:42:00,38.1,37.1,30.12,West,275,0.0,0.0,96,0.00,,CLR,0.00,VWS V14.01,2013-02-04 09:42:00,
2013-02-04 04:47:00,38.7,37.7,30.12,West,275,0.0,0.0,96,0.00,,CLR,0.00,VWS V14.01,2013-02-04 09:47:00,
2013-02-04 04:52:00,38.9,37.9,30.12,West,275,0.0,0.0,96,0.00,,CLR,0.00,VWS V14.01,2013-02-04 09:52:00,
2013-02-04 04:57:00,39.1,38.1,30.12,West,275,0.0,0.0,96,0.00,,CLR,0.00,VWS V14.01,2013-02-04 09:57:00,
2013-02-04 05:02:00,39.0,38.0,30.12,West,275,0.0,0.0,96,0.00,,CLR,0.00,VWS V14.01,2013-02-04 10:02:00,
2013-02-04 05:07:00,38.8,37.8,30.12,West,275,0.0,0.0,96,0.00,,CLR,0.00,VWS V14.01,2013-02-04 10:07:00,
2013-02-04 05:12:00,38.6,37.6,30.12,West,275,0.0,0.0,96,0.00,,CLR,0.00,VWS V14.01,2013-02-04 10:12:00,
2013-02-04 05:17:00,38.9,37.9,30.12,West,275,0.0,0.0,96,0.00,,CLR,0.00,VWS V14.01,2013-02-04 10:17:00,
2013-02-04 05:22:00,38.7,37.7,30.12,West,275,0.0,0.0,96,0.00,,CLR,0.00,VWS V14.01,2013-02-04 10:22:00,
2013-02-04 05:27:00,38.3,37.3,30.12,West,275,0.0,0.0,96,0.00,,CLR,0.00,VWS V14.01,2013-02-04 10:27:00,
2013-02-04 05:32:00,38.1,37.1,30.12,West,275,0.0,0.0,96,0.00,,CLR,0.00,VWS V14.01,2013-02-04 10:32:00,
2013-02-04 05:37:00,37.8,36.8,30.13,West,275,0.0,0.0,96,0.00,,CLR,0.00,VWS V14.01,2013-02-04 10:37:00,
2013-02-04 05:42:00,37.7,36.7,30.13,West,275,0.0,0.0,96,0.00,,CLR,0.00,VWS V14.01,2013-02-04 10:42:00,
2013-02-04 05:47:00,37.8,36.8,30.13,West,275,0.0,0.0,96,0.00,,CLR,0.00,VWS V14.01,2013-02-04 10:47:00,
2013-02-04 05:52:00,38.0,37.0,30.13,West,275,0.0,0.0,96,0.00,,CLR,0.00,VWS V14.01,2013-02-04 10:52:00,
2013-02-04 05:57:00,38.2,37.2,30.13,West,275,0.0,0.0,96,0.00,,CLR,0.00,VWS V14.01,2013-02-04 10:57:00,
2013-02-04 06:02:00,38.0,37.0,30.13,West,275,0.0,0.0,96,0.00,,CLR,0.00,VWS V14.01,2013-02-04 11:02:00,
2013-02-04 06:07:00,37.9,36.9,30.13,West,275,0.0,0.0,96,0.00,,CLR,0.00,VWS V14.01,2013-02-04 11:07:00,
2013-02-04 06:12:00,37.8,36.8,30.13,West,275,0.0,0.0,96,0.00,,CLR,0.00,VWS V14.01,2013-02-04 11:12:00,
2013-02-04 06:17:00,37.7,36.7,30.13,West,275,0.0,0.0,96,0.00,,CLR,0.00,VWS V14.01,2013-02-04 11:17:00,
2013-02-04 06:22:00,37.6,36.6,30.13,West,275,0.0,0.0,96,0.00,,CLR,0.00,VWS V14.01,2013-02-04 11:22:00,
2013-02-04 06:27:00,37.5,36.5,30.12,West,275,0.0,0.0,96,0.00,,CLR,0.00,VWS V14.01,2013-02-04 11:27:00,
2013-02-04 06:32:00,37.6,36.6,30.13,West,275,0.0,0.0,96,0.00,,CLR,0.00,VWS V14.01,2013-02-04 11:32:00,
2013-02-04 06:37:00,37.9,37.1,30.13,West,275,0.0,0.0,97,0.00,,CLR,0.00,VWS V14.01,2013-02-04 11:37:00,
2013-02-04 06:42:00,37.5,36.5,30.13,West,275,0.0,0.0,96,0.00,,CLR,0.00,VWS V14.01,2013-02-04 11:42:00,
2013-02-04 06:47:00,36.7,35.7,30.13,West,275,0.0,0.0,96,0.00,,CLR,0.00,VWS V14.01,2013-02-04 11:47:00,
2013-02-04 06:53:00,36.4,35.4,30.12,West,275,0.0,0.0,96,0.00,,CLR,0.00,VWS V14.01,2013-02-04 11:53:00,
2013-02-04 06:58:00,36.5,35.5,30.13,West,275,0.0,0.0,96,0.00,,CLR,0.00,VWS V14.01,2013-02-04 11:58:00,
2013-02-04 07:03:00,36.6,35.6,30.13,West,275,0.0,0.0,96,0.00,,CLR,0.00,VWS V14.01,2013-02-04 12:03:00,
2013-02-04 07:08:00,36.7,35.7,30.13,West,275,0.0,0.0,96,0.00,,CLR,0.00,VWS V14.01,2013-02-04 12:08:00,
2013-02-04 07:13:00,36.9,35.9,30.13,West,275,0.0,0.0,96,0.00,,CLR,0.00,VWS V14.01,2013-02-04 12:13:00,
2013-02-04 07:18:00,36.8,35.8,30.13,West,275,0.0,0.0,96,0.00,,CLR,0.00,VWS V14.01,2013-02-04 12:18:00,
2013-02-04 07:23:00,37.2,36.2,30.13,West,275,0.0,0.0,96,0.00,,CLR,0.00,VWS V14.01,2013-02-04 12:23:00,
2013-02-04 07:28:00,37.2,36.2,30.13,West,275,0.0,0.0,96,0.00,,CLR,0.00,VWS V14.01,2013-02-04 12:28:00,
2013-02-04 07:33:00,37.6,36.8,30.13,West,275,0.0,0.0,97,0.00,,CLR,0.00,VWS V14.01,2013-02-04 12:33:00,
2013-02-04 07:38:00,37.4,36.4,30.13,West,275,0.0,0.0,96,0.00,,CLR,0.00,VWS V14.01,2013-02-04 12:38:00,
2013-02-04 07:43:00,37.4,36.4,30.13,West,275,0.0,0.0,96,0.00,,CLR,0.00,VWS V14.01,2013-02-04 12:43:00,
2013-02-04 07:48:00,37.8,36.8,30.13,West,275,0.0,0.0,96,0.00,,CLR,0.00,VWS V14.01,2013-02-04 12:48:00,
2013-02-04 07:53:00,38.3,37.3,30.13,West,275,0.0,0.0,96,0.00,,CLR,0.00,VWS V14.01,2013-02-04 12:53:00,
2013-02-04 07:58:00,39.0,38.2,30.13,West,275,0.0,0.0,97,0.00,,CLR,0.00,VWS V14.01,2013-02-04 12:58:00,
2013-02-04 08:03:00,39.7,38.9,30.14,SSW,193,0.0,0.0,97,0.00,,CLR,0.00,VWS V14.01,2013-02-04 13:03:00,
2013-02-04 08:08:00,40.9,40.1,30.14,SSW,193,0.0,0.0,97,0.00,,CLR,0.00,VWS V14.01,2013-02-04 13:08:00,
2013-02-04 08:13:00,41.7,40.9,30.14,SSW,193,0.0,0.0,97,0.00,,CLR,0.00,VWS V14.01,2013-02-04 13:13:00,
2013-02-04 08:18:00,42.7,41.9,30.14,SSW,192,0.0,0.0,97,0.00,,CLR,0.00,VWS V14.01,2013-02-04 13:18:00,
2013-02-04 08:23:00,43.3,42.5,30.13,SSW,192,0.0,0.0,97,0.00,,CLR,0.00,VWS V14.01,2013-02-04 13:23:00,
2013-02-04 08:28:00,43.8,43.0,30.13,SSW,192,0.0,0.0,97,0.00,,CLR,0.00,VWS V14.01,2013-02-04 13:28:00,
2013-02-04 08:33:00,44.3,43.2,30.13,SSW,192,0.0,0.0,96,0.00,,CLR,0.00,VWS V14.01,2013-02-04 13:33:00,
2013-02-04 08:38:00,44.6,43.5,30.14,SSW,192,0.0,0.0,96,0.00,,CLR,0.00,VWS V14.01,2013-02-04 13:38:00,
2013-02-04 08:43:00,45.0,43.9,30.14,SSW,192,0.0,0.0,96,0.00,,CLR,0.00,VWS V14.01,2013-02-04 13:43:00,
2013-02-04 08:48:00,45.7,44.3,30.14,SSW,192,0.0,0.0,95,0.00,,CLR,0.00,VWS V14.01,2013-02-04 13:48:00,
2013-02-04 08:53:00,46.6,45.2,30.14,SSW,192,0.0,0.0,95,0.00,,CLR,0.00,VWS V14.01,2013-02-04 13:53:00,
2013-02-04 08:58:00,47.8,45.9,30.14,SSW,192,0.0,0.0,93,0.00,,CLR,0.00,VWS V14.01,2013-02-04 13:58:00,
2013-02-04 09:03:00,49.1,46.6,30.14,ENE,67,0.0,0.0,91,0.00,,CLR,0.00,VWS V14.01,2013-02-04 14:03:00,
2013-02-04 09:09:00,50.6,47.2,30.14,NE,44,4.0,5.0,88,0.00,,CLR,0.00,VWS V14.01,2013-02-04 14:09:00,
2013-02-04 09:14:00,51.4,47.4,30.14,ENE,74,0.0,5.0,86,0.00,,CLR,0.00,VWS V14.01,2013-02-04 14:14:00,
2013-02-04 09:19:00,52.5,47.5,30.14,ENE,72,0.0,6.0,83,0.00,,CLR,0.00,VWS V14.01,2013-02-04 14:19:00,
2013-02-04 09:24:00,53.1,47.1,30.14,NE,38,4.0,6.0,80,0.00,,CLR,0.00,VWS V14.01,2013-02-04 14:24:00,
2013-02-04 09:29:00,53.4,45.7,30.14,NE,55,1.0,6.0,75,0.00,,CLR,0.00,VWS V14.01,2013-02-04 14:29:00,
2013-02-04 09:34:00,53.8,45.0,30.14,East,82,0.0,3.0,72,0.00,,CLR,0.00,VWS V14.01,2013-02-04 14:34:00,
2013-02-04 09:39:00,54.9,45.3,30.14,East,87,2.0,6.0,70,0.00,,CLR,0.00,VWS V14.01,2013-02-04 14:39:00,
2013-02-04 09:44:00,55.7,43.7,30.14,East,89,2.0,6.0,64,0.00,,CLR,0.00,VWS V14.01,2013-02-04 14:44:00,
2013-02-04 09:49:00,56.1,43.3,30.15,East,95,0.0,6.0,62,0.00,,CLR,0.00,VWS V14.01,2013-02-04 14:49:00,
2013-02-04 09:54:00,56.2,43.0,30.15,ESE,103,0.0,6.0,61,0.00,,CLR,0.00,VWS V14.01,2013-02-04 14:54:00,
2013-02-04 09:59:00,56.6,43.8,30.15,ESE,103,0.0,6.0,62,0.00,,CLR,0.00,VWS V14.01,2013-02-04 14:59:00,
2013-02-04 10:04:00,57.0,43.3,30.15,ESE,104,0.0,1.0,60,0.00,,CLR,0.00,VWS V14.01,2013-02-04 15:04:00,
2013-02-04 10:09:00,57.2,43.0,30.15,ESE,108,0.0,1.0,59,0.00,,CLR,0.00,VWS V14.01,2013-02-04 15:09:00,
2013-02-04 10:14:00,57.6,43.4,30.15,ESE,107,0.0,1.0,59,0.00,,CLR,0.00,VWS V14.01,2013-02-04 15:14:00,
2013-02-04 10:19:00,58.3,43.6,30.15,ESE,108,0.0,1.0,58,0.00,,CLR,0.00,VWS V14.01,2013-02-04 15:19:00,
2013-02-04 10:24:00,58.8,43.2,30.15,ESE,121,0.0,1.0,56,0.00,,CLR,0.00,VWS V14.01,2013-02-04 15:24:00,
2013-02-04 10:29:00,59.1,42.5,30.15,ESE,121,0.0,1.0,54,0.00,,CLR,0.00,VWS V14.01,2013-02-04 15:29:00,
2013-02-04 10:34:00,59.4,42.8,30.15,ESE,121,0.0,1.0,54,0.00,,CLR,0.00,VWS V14.01,2013-02-04 15:34:00,
2013-02-04 10:39:00,59.9,42.7,30.15,ESE,121,0.0,1.0,53,0.00,,CLR,0.00,VWS V14.01,2013-02-04 15:39:00,
2013-02-04 10:44:00,60.4,43.2,30.15,ESE,121,0.0,1.0,53,0.00,,CLR,0.00,VWS V14.01,2013-02-04 15:44:00,
2013-02-04 10:49:00,60.7,42.0,30.15,East,101,0.0,4.0,50,0.00,,CLR,0.00,VWS V14.01,2013-02-04 15:49:00,
2013-02-04 10:54:00,60.7,42.0,30.15,ESE,111,0.0,4.0,50,0.00,,CLR,0.00,VWS V14.01,2013-02-04 15:54:00,
2013-02-04 10:59:00,61.4,42.6,30.16,SSE,148,0.0,4.0,50,0.00,,CLR,0.00,VWS V14.01,2013-02-04 15:59:00,
2013-02-04 11:04:00,62.7,43.3,30.15,SSE,148,0.0,0.0,49,0.00,,CLR,0.00,VWS V14.01,2013-02-04 16:04:00,
2013-02-04 11:09:00,63.2,41.5,30.15,SSE,148,2.0,6.0,45,0.00,,CLR,0.00,VWS V14.01,2013-02-04 16:09:00,
2013-02-04 11:14:00,63.0,40.8,30.15,SE,145,1.0,6.0,44,0.00,,CLR,0.00,VWS V14.01,2013-02-04 16:14:00,
2013-02-04 11:19:00,62.6,41.0,30.14,SSE,166,0.0,6.0,45,0.00,,CLR,0.00,VWS V14.01,2013-02-04 16:19:00,
2013-02-04 11:24:00,65.2,40.3,30.14,East,79,1.0,6.0,40,0.00,,CLR,0.00,VWS V14.01,2013-02-04 16:24:00,
2013-02-04 11:29:00,66.0,39.0,30.13,SE,146,4.0,7.0,37,0.00,,CLR,0.00,VWS V14.01,2013-02-04 16:29:00,
2013-02-04 11:34:00,65.8,38.8,30.13,SSW,213,5.0,6.0,37,0.00,,CLR,0.00,VWS V14.01,2013-02-04 16:34:00,
2013-02-04 11:39:00,65.6,36.5,30.14,SSW,199,2.0,9.0,34,0.00,,CLR,0.00,VWS V14.01,2013-02-04 16:39:00,
2013-02-04 11:44:00,65.8,35.9,30.14,SSW,196,0.0,9.0,33,0.00,,CLR,0.00,VWS V14.01,2013-02-04 16:44:00,
2013-02-04 11:49:00,66.3,35.6,30.14,ESE,109,0.0,9.0,32,0.00,,CLR,0.00,VWS V14.01,2013-02-04 16:49:00,
2013-02-04 11:54:00,65.3,34.7,30.13,ESE,109,0.0,9.0,32,0.00,,CLR,0.00,VWS V14.01,2013-02-04 16:54:00,
2013-02-04 11:59:00,64.9,35.1,30.13,SSW,209,0.0,9.0,33,0.00,,CLR,0.00,VWS V14.01,2013-02-04 16:59:00,
2013-02-04 12:04:00,65.5,35.7,30.13,SSW,198,0.0,4.0,33,0.00,,CLR,0.00,VWS V14.01,2013-02-04 17:04:00,
2013-02-04 12:09:00,67.3,36.5,30.13,East,101,4.0,5.0,32,0.00,,CLR,0.00,VWS V14.01,2013-02-04 17:09:00,
2013-02-04 12:15:00,66.9,36.1,30.13,East,101,0.0,5.0,32,0.00,,CLR,0.00,VWS V14.01,2013-02-04 17:15:00,
2013-02-04 12:20:00,65.7,35.8,30.13,ESE,113,0.0,5.0,33,0.00,,CLR,0.00,VWS V14.01,2013-02-04 17:20:00,
2013-02-04 12:25:00,65.3,36.2,30.13,SSE,153,0.0,5.0,34,0.00,,CLR,0.00,VWS V14.01,2013-02-04 17:25:00,
2013-02-04 12:30:00,65.2,36.2,30.12,South,181,0.0,0.0,34,0.00,,CLR,0.00,VWS V14.01,2013-02-04 17:30:00,
2013-02-04 12:35:00,64.8,36.5,30.13,SSE,148,0.0,8.0,35,0.00,,CLR,0.00,VWS V14.01,2013-02-04 17:35:00,
2013-02-04 12:40:00,64.7,35.7,30.12,SSE,148,5.0,8.0,34,0.00,,CLR,0.00,VWS V14.01,2013-02-04 17:40:00,
2013-02-04 12:45:00,66.0,36.8,30.11,SE,142,0.0,8.0,34,0.00,,CLR,0.00,VWS V14.01,2013-02-04 17:45:00,
2013-02-04 12:50:00,65.5,35.7,30.11,South,173,1.0,8.0,33,0.00,,CLR,0.00,VWS V14.01,2013-02-04 17:50:00,
2013-02-04 12:55:00,65.5,34.9,30.10,SSW,198,0.0,8.0,32,0.00,,CLR,0.00,VWS V14.01,2013-02-04 17:55:00,
2013-02-04 13:00:00,66.5,36.5,30.10,ESE,115,4.0,7.0,33,0.00,,CLR,0.00,VWS V14.01,2013-02-04 18:00:00,
2013-02-04 13:05:00,66.7,35.1,30.10,SSE,159,0.0,8.0,31,0.00,,CLR,0.00,VWS V14.01,2013-02-04 18:05:00,
2013-02-04 13:10:00,66.8,35.2,30.09,SE,124,0.0,8.0,31,0.00,,CLR,0.00,VWS V14.01,2013-02-04 18:10:00,
2013-02-04 13:15:00,67.5,35.8,30.09,ESE,123,0.0,8.0,31,0.00,,CLR,0.00,VWS V14.01,2013-02-04 18:15:00,
2013-02-04 13:20:00,66.6,35.0,30.09,South,172,5.0,9.0,31,0.00,,CLR,0.00,VWS V14.01,2013-02-04 18:20:00,
2013-02-04 13:25:00,66.5,35.0,30.09,South,190,0.0,9.0,31,0.00,,CLR,0.00,VWS V14.01,2013-02-04 18:25:00,
2013-02-04 13:30:00,66.1,36.2,30.09,SW,217,0.0,1.0,33,0.00,,CLR,0.00,VWS V14.01,2013-02-04 18:30:00,
2013-02-04 13:35:00,66.1,36.2,30.09,SSW,211,4.0,4.0,33,0.00,,CLR,0.00,VWS V14.01,2013-02-04 18:35:00,
2013-02-04 13:40:00,66.3,37.1,30.08,WSW,244,3.0,6.0,34,0.00,,CLR,0.00,VWS V14.01,2013-02-04 18:40:00,
2013-02-04 13:45:00,66.2,36.3,30.08,WSW,256,0.0,6.0,33,0.00,,CLR,0.00,VWS V14.01,2013-02-04 18:45:00,
2013-02-04 13:50:00,66.5,35.8,30.08,SE,141,0.0,6.0,32,0.00,,CLR,0.00,VWS V14.01,2013-02-04 18:50:00,
2013-02-04 13:55:00,66.3,35.6,30.08,SE,129,0.0,6.0,32,0.00,,CLR,0.00,VWS V14.01,2013-02-04 18:55:00,
2013-02-04 14:00:00,66.5,35.8,30.08,SSW,193,0.0,3.0,32,0.00,,CLR,0.00,VWS V14.01,2013-02-04 19:00:00,
2013-02-04 14:05:00,66.5,35.8,30.08,SSE,156,0.0,5.0,32,0.00,,CLR,0.00,VWS V14.01,2013-02-04 19:05:00,
2013-02-04 14:10:00,66.9,35.3,30.08,SE,146,0.0,6.0,31,0.00,,CLR,0.00,VWS V14.01,2013-02-04 19:10:00,
2013-02-04 14:15:00,67.5,36.6,30.08,SE,143,1.0,6.0,32,0.00,,CLR,0.00,VWS V14.01,2013-02-04 19:15:00,
2013-02-04 14:20:00,67.4,35.7,30.08,SE,139,0.0,6.0,31,0.00,,CLR,0.00,VWS V14.01,2013-02-04 19:20:00,
2013-02-04 14:25:00,67.0,35.4,30.08,West,279,0.0,6.0,31,0.00,,CLR,0.00,VWS V14.01,2013-02-04 19:25:00,
2013-02-04 14:30:00,66.8,35.2,30.08,WSW,248,0.0,0.0,31,0.00,,CLR,0.00,VWS V14.01,2013-02-04 19:30:00,
2013-02-04 14:35:00,66.6,35.8,30.07,West,281,0.0,5.0,32,0.00,,CLR,0.00,VWS V14.01,2013-02-04 19:35:00,
2013-02-04 14:40:00,66.7,35.1,30.07,West,281,0.0,5.0,31,0.00,,CLR,0.00,VWS V14.01,2013-02-04 19:40:00,
2013-02-04 14:45:00,68.0,36.3,30.07,West,281,0.0,5.0,31,0.00,,CLR,0.00,VWS V14.01,2013-02-04 19:45:00,
2013-02-04 14:50:00,69.6,36.0,30.07,West,281,0.0,5.0,29,0.00,,CLR,0.00,VWS V14.01,2013-02-04 19:50:00,
2013-02-04 14:55:00,68.4,35.8,30.07,West,281,0.0,5.0,30,0.00,,CLR,0.00,VWS V14.01,2013-02-04 19:55:00,
2013-02-04 15:00:00,68.5,36.7,30.07,West,280,0.0,0.0,31,0.00,,CLR,0.00,VWS V14.01,2013-02-04 20:00:00,
2013-02-04 15:05:00,68.9,36.2,30.07,SSE,167,0.0,5.0,30,0.00,,CLR,0.00,VWS V14.01,2013-02-04 20:05:00,
2013-02-04 15:10:00,67.1,35.5,30.07,West,261,0.0,5.0,31,0.00,,CLR,0.00,VWS V14.01,2013-02-04 20:10:00,
2013-02-04 15:15:00,67.4,36.5,30.07,South,186,0.0,5.0,32,0.00,,CLR,0.00,VWS V14.01,2013-02-04 20:15:00,
2013-02-04 15:21:00,68.1,35.5,30.07,SE,140,1.0,5.0,30,0.00,,CLR,0.00,VWS V14.01,2013-02-04 20:21:00,
2013-02-04 15:26:00,67.8,36.9,30.07,ESE,118,0.0,5.0,32,0.00,,CLR,0.00,VWS V14.01,2013-02-04 20:26:00,
2013-02-04 15:31:00,67.4,37.3,30.07,ESE,118,0.0,0.0,33,0.00,,CLR,0.00,VWS V14.01,2013-02-04 20:31:00,
2013-02-04 15:36:00,67.0,36.2,30.07,SSE,148,0.0,1.0,32,0.00,,CLR,0.00,VWS V14.01,2013-02-04 20:36:00,
2013-02-04 15:41:00,67.8,36.9,30.08,SSE,148,0.0,1.0,32,0.00,,CLR,0.00,VWS V14.01,2013-02-04 20:41:00,
2013-02-04 15:46:00,68.1,37.2,30.07,SSE,148,0.0,1.0,32,0.00,,CLR,0.00,VWS V14.01,2013-02-04 20:46:00,
2013-02-04 15:51:00,67.3,36.5,30.08,WSW,248,0.0,1.0,32,0.00,,CLR,0.00,VWS V14.01,2013-02-04 20:51:00,
2013-02-04 15:56:00,67.1,35.5,30.08,West,262,0.0,1.0,31,0.00,,CLR,0.00,VWS V14.01,2013-02-04 20:56:00,
2013-02-04 16:01:00,67.1,36.3,30.08,West,262,0.0,0.0,32,0.00,,CLR,0.00,VWS V14.01,2013-02-04 21:01:00,
2013-02-04 16:06:00,67.3,36.5,30.08,West,261,0.0,0.0,32,0.00,,CLR,0.00,VWS V14.01,2013-02-04 21:06:00,
2013-02-04 16:11:00,66.6,35.8,30.08,West,261,0.0,0.0,32,0.00,,CLR,0.00,VWS V14.01,2013-02-04 21:11:00,
2013-02-04 16:16:00,66.1,36.9,30.08,West,261,0.0,0.0,34,0.00,,CLR,0.00,VWS V14.01,2013-02-04 21:16:00,
2013-02-04 16:21:00,66.7,35.9,30.08,West,261,0.0,0.0,32,0.00,,CLR,0.00,VWS V14.01,2013-02-04 21:21:00,
2013-02-04 16:26:00,66.6,36.6,30.07,WNW,302,0.0,1.0,33,0.00,,CLR,0.00,VWS V14.01,2013-02-04 21:26:00,
2013-02-04 16:31:00,66.6,36.6,30.08,WNW,300,0.0,2.0,33,0.00,,CLR,0.00,VWS V14.01,2013-02-04 21:31:00,
2013-02-04 16:36:00,66.5,36.5,30.07,WNW,301,0.0,2.0,33,0.00,,CLR,0.00,VWS V14.01,2013-02-04 21:36:00,
2013-02-04 16:41:00,66.7,35.1,30.07,NW,314,0.0,2.0,31,0.00,,CLR,0.00,VWS V14.01,2013-02-04 21:41:00,
2013-02-04 16:46:00,67.0,36.2,30.07,NW,314,0.0,2.0,32,0.00,,CLR,0.00,VWS V14.01,2013-02-04 21:46:00,
2013-02-04 16:51:00,66.7,35.9,30.07,NW,322,0.0,2.0,32,0.00,,CLR,0.00,VWS V14.01,2013-02-04 21:51:00,
2013-02-04 16:56:00,66.5,35.8,30.07,NW,322,0.0,2.0,32,0.00,,CLR,0.00,VWS V14.01,2013-02-04 21:56:00,
2013-02-04 17:01:00,66.2,37.0,30.08,NNW,348,4.0,6.0,34,0.00,,CLR,0.00,VWS V14.01,2013-02-04 22:01:00,
2013-02-04 17:06:00,66.1,36.2,30.08,North,355,0.0,6.0,33,0.00,,CLR,0.00,VWS V14.01,2013-02-04 22:06:00,
2013-02-04 17:11:00,66.2,37.0,30.08,NE,41,0.0,6.0,34,0.00,,CLR,0.00,VWS V14.01,2013-02-04 22:11:00,
2013-02-04 17:16:00,66.1,36.9,30.08,NE,41,0.0,6.0,34,0.00,,CLR,0.00,VWS V14.01,2013-02-04 22:16:00,
2013-02-04 17:21:00,65.6,37.2,30.07,NE,41,0.0,6.0,35,0.00,,CLR,0.00,VWS V14.01,2013-02-04 22:21:00,
2013-02-04 17:26:00,65.0,36.7,30.07,NE,41,0.0,6.0,35,0.00,,CLR,0.00,VWS V14.01,2013-02-04 22:26:00,
2013-02-04 17:31:00,64.7,37.2,30.07,NE,41,0.0,0.0,36,0.00,,CLR,0.00,VWS V14.01,2013-02-04 22:31:00,
2013-02-04 17:36:00,64.3,36.8,30.08,NE,41,0.0,0.0,36,0.00,,CLR,0.00,VWS V14.01,2013-02-04 22:36:00,
2013-02-04 17:41:00,64.0,37.2,30.08,NE,38,0.0,3.0,37,0.00,,CLR,0.00,VWS V14.01,2013-02-04 22:41:00,
2013-02-04 17:46:00,63.8,37.0,30.08,NE,37,0.0,3.0,37,0.00,,CLR,0.00,VWS V14.01,2013-02-04 22:46:00,
2013-02-04 17:51:00,63.7,37.0,30.08,NE,37,0.0,3.0,37,0.00,,CLR,0.00,VWS V14.01,2013-02-04 22:51:00,
2013-02-04 17:56:00,63.8,37.0,30.08,NE,38,0.0,3.0,37,0.00,,CLR,0.00,VWS V14.01,2013-02-04 22:56:00,
2013-02-04 18:01:00,63.6,37.5,30.08,NE,38,0.0,0.0,38,0.00,,CLR,0.00,VWS V14.01,2013-02-04 23:01:00,
2013-02-04 18:07:00,63.3,38.0,30.09,NE,38,0.0,1.0,39,0.00,,CLR,0.00,VWS V14.01,2013-02-04 23:07:00,
2013-02-04 18:12:00,62.8,37.5,30.09,NE,38,0.0,1.0,39,0.00,,CLR,0.00,VWS V14.01,2013-02-04 23:12:00,
2013-02-04 18:17:00,62.4,38.4,30.08,NE,38,0.0,1.0,41,0.00,,CLR,0.00,VWS V14.01,2013-02-04 23:17:00,
2013-02-04 18:22:00,62.1,38.1,30.08,NE,38,0.0,1.0,41,0.00,,CLR,0.00,VWS V14.01,2013-02-04 23:22:00,
2013-02-04 18:27:00,61.8,38.5,30.08,NE,38,0.0,1.0,42,0.00,,CLR,0.00,VWS V14.01,2013-02-04 23:27:00,
2013-02-04 18:32:00,61.4,38.7,30.08,NE,38,0.0,0.0,43,0.00,,CLR,0.00,VWS V14.01,2013-02-04 23:32:00,
2013-02-04 18:37:00,61.0,39.0,30.07,NE,38,0.0,0.0,44,0.00,,CLR,0.00,VWS V14.01,2013-02-04 23:37:00,
2013-02-04 18:42:00,60.5,39.1,30.07,NE,38,0.0,0.0,45,0.00,,CLR,0.00,VWS V14.01,2013-02-04 23:42:00,
2013-02-04 18:47:00,59.5,39.3,30.08,NE,38,0.0,0.0,47,0.00,,CLR,0.00,VWS V14.01,2013-02-04 23:47:00,
2013-02-04 18:52:00,58.3,39.2,30.08,NE,38,0.0,0.0,49,0.00,,CLR,0.00,VWS V14.01,2013-02-04 23:52:00,
2013-02-04 18:57:00,57.6,39.1,30.08,NE,38,0.0,0.0,50,0.00,,CLR,0.00,VWS V14.01,2013-02-04 23:57:00,
2013-02-04 19:02:00,57.2,39.2,30.09,NE,38,0.0,0.0,51,0.00,,CLR,0.00,VWS V14.01,2013-02-05 00:02:00,
2013-02-04 19:07:00,57.1,39.7,30.08,NE,38,0.0,0.0,52,0.00,,CLR,0.00,VWS V14.01,2013-02-05 00:07:00,
2013-02-04 19:12:00,56.8,39.4,30.08,NE,38,0.0,0.0,52,0.00,,CLR,0.00,VWS V14.01,2013-02-05 00:12:00,
2013-02-04 19:17:00,55.9,40.0,30.08,NE,38,0.0,0.0,55,0.00,,CLR,0.00,VWS V14.01,2013-02-05 00:17:00,
2013-02-04 19:22:00,55.4,40.0,30.08,NE,38,0.0,0.0,56,0.00,,CLR,0.00,VWS V14.01,2013-02-05 00:22:00,
2013-02-04 19:27:00,54.7,40.2,30.08,NE,38,0.0,0.0,58,0.00,,CLR,0.00,VWS V14.01,2013-02-05 00:27:00,
2013-02-04 19:32:00,54.3,40.3,30.08,NE,38,0.0,0.0,59,0.00,,CLR,0.00,VWS V14.01,2013-02-05 00:32:00,
2013-02-04 19:37:00,54.1,40.5,30.08,NE,38,0.0,0.0,60,0.00,,CLR,0.00,VWS V14.01,2013-02-05 00:37:00,
2013-02-04 19:42:00,54.3,40.7,30.08,NE,38,0.0,0.0,60,0.00,,CLR,0.00,VWS V14.01,2013-02-05 00:42:00,
2013-02-04 19:47:00,53.9,41.2,30.08,NE,38,0.0,0.0,62,0.00,,CLR,0.00,VWS V14.01,2013-02-05 00:47:00,
2013-02-04 19:52:00,53.8,40.7,30.09,West,279,0.0,1.0,61,0.00,,CLR,0.00,VWS V14.01,2013-02-05 00:52:00,
2013-02-04 19:57:00,53.9,40.8,30.09,West,279,0.0,1.0,61,0.00,,CLR,0.00,VWS V14.01,2013-02-05 00:57:00,
2013-02-04 20:02:00,54.3,41.2,30.09,West,279,0.0,0.0,61,0.00,,CLR,0.00,VWS V14.01,2013-02-05 01:02:00,
2013-02-04 20:07:00,54.3,41.6,30.09,West,279,0.0,0.0,62,0.00,,CLR,0.00,VWS V14.01,2013-02-05 01:07:00,
2013-02-04 20:12:00,54.3,41.6,30.09,West,279,0.0,0.0,62,0.00,,CLR,0.00,VWS V14.01,2013-02-05 01:12:00,
2013-02-04 20:17:00,54.0,41.3,30.09,West,279,0.0,0.0,62,0.00,,CLR,0.00,VWS V14.01,2013-02-05 01:17:00,
2013-02-04 20:22:00,53.6,41.7,30.09,West,279,0.0,0.0,64,0.00,,CLR,0.00,VWS V14.01,2013-02-05 01:22:00,
2013-02-04 20:27:00,53.2,41.8,30.09,West,279,0.0,0.0,65,0.00,,CLR,0.00,VWS V14.01,2013-02-05 01:27:00,
2013-02-04 20:32:00,53.0,41.6,30.09,West,279,0.0,0.0,65,0.00,,CLR,0.00,VWS V14.01,2013-02-05 01:32:00,
2013-02-04 20:37:00,53.2,41.0,30.09,West,279,0.0,0.0,63,0.00,,CLR,0.00,VWS V14.01,2013-02-05 01:37:00,
2013-02-04 20:42:00,53.3,40.6,30.09,West,279,0.0,0.0,62,0.00,,CLR,0.00,VWS V14.01,2013-02-05 01:42:00,
2013-02-04 20:48:00,53.0,40.8,30.09,West,279,0.0,0.0,63,0.00,,CLR,0.00,VWS V14.01,2013-02-05 01:48:00,
2013-02-04 20:53:00,52.6,40.4,30.09,West,279,0.0,0.0,63,0.00,,CLR,0.00,VWS V14.01,2013-02-05 01:53:00,
2013-02-04 20:58:00,52.5,40.3,30.09,West,279,0.0,0.0,63,0.00,,CLR,0.00,VWS V14.01,2013-02-05 01:58:00,
2013-02-04 21:03:00,52.3,39.7,30.09,West,279,0.0,0.0,62,0.00,,CLR,0.00,VWS V14.01,2013-02-05 02:03:00,
2013-02-04 21:08:00,52.1,40.3,30.09,West,279,0.0,0.0,64,0.00,,CLR,0.00,VWS V14.01,2013-02-05 02:08:00,
2013-02-04 21:13:00,51.6,40.2,30.10,West,279,0.0,0.0,65,0.00,,CLR,0.00,VWS V14.01,2013-02-05 02:13:00,
2013-02-04 21:18:00,51.5,40.5,30.10,West,279,0.0,0.0,66,0.00,,CLR,0.00,VWS V14.01,2013-02-05 02:18:00,
2013-02-04 21:23:00,51.5,40.9,30.10,West,279,0.0,0.0,67,0.00,,CLR,0.00,VWS V14.01,2013-02-05 02:23:00,
2013-02-04 21:28:00,51.3,40.7,30.10,West,279,0.0,0.0,67,0.00,,CLR,0.00,VWS V14.01,2013-02-05 02:28:00,
2013-02-04 21:33:00,51.2,41.0,30.10,West,279,0.0,0.0,68,0.00,,CLR,0.00,VWS V14.01,2013-02-05 02:33:00,
2013-02-04 21:38:00,50.9,40.7,30.10,West,279,0.0,0.0,68,0.00,,CLR,0.00,VWS V14.01,2013-02-05 02:38:00,
2013-02-04 21:43:00,50.7,40.9,30.10,West,279,0.0,0.0,69,0.00,,CLR,0.00,VWS V14.01,2013-02-05 02:43:00,
2013-02-04 21:48:00,50.4,40.2,30.10,West,279,0.0,0.0,68,0.00,,CLR,0.00,VWS V14.01,2013-02-05 02:48:00,
2013-02-04 21:53:00,50.4,39.9,30.10,West,279,0.0,0.0,67,0.00,,CLR,0.00,VWS V14.01,2013-02-05 02:53:00,
2013-02-04 21:58:00,50.4,40.2,30.10,West,279,0.0,0.0,68,0.00,,CLR,0.00,VWS V14.01,2013-02-05 02:58:00,
2013-02-04 22:03:00,50.2,40.1,30.10,West,279,0.0,0.0,68,0.00,,CLR,0.00,VWS V14.01,2013-02-05 03:03:00,
2013-02-04 22:08:00,49.8,39.7,30.10,West,279,0.0,0.0,68,0.00,,CLR,0.00,VWS V14.01,2013-02-05 03:08:00,
2013-02-04 22:13:00,49.5,40.1,30.10,West,279,0.0,0.0,70,0.00,,CLR,0.00,VWS V14.01,2013-02-05 03:13:00,
2013-02-04 22:18:00,49.1,39.8,30.10,West,279,0.0,0.0,70,0.00,,CLR,0.00,VWS V14.01,2013-02-05 03:18:00,
2013-02-04 22:23:00,48.8,39.8,30.10,West,279,0.0,0.0,71,0.00,,CLR,0.00,VWS V14.01,2013-02-05 03:23:00,
2013-02-04 22:28:00,48.5,39.5,30.10,West,279,0.0,0.0,71,0.00,,CLR,0.00,VWS V14.01,2013-02-05 03:28:00,
2013-02-04 22:33:00,48.2,39.2,30.10,West,279,0.0,0.0,71,0.00,,CLR,0.00,VWS V14.01,2013-02-05 03:33:00,
2013-02-04 22:39:00,47.8,38.9,30.10,West,279,0.0,0.0,71,0.00,,CLR,0.00,VWS V14.01,2013-02-05 03:39:00,
2013-02-04 22:44:00,47.7,39.1,30.10,West,279,0.0,0.0,72,0.00,,CLR,0.00,VWS V14.01,2013-02-05 03:44:00,
2013-02-04 22:49:00,47.5,39.3,30.10,West,279,0.0,0.0,73,0.00,,CLR,0.00,VWS V14.01,2013-02-05 03:49:00,
2013-02-04 22:54:00,47.5,39.6,30.10,West,279,0.0,0.0,74,0.00,,CLR,0.00,VWS V14.01,2013-02-05 03:54:00,
2013-02-04 22:59:00,47.3,39.1,30.11,West,279,0.0,0.0,73,0.00,,CLR,0.00,VWS V14.01,2013-02-05 03:59:00,
2013-02-04 23:04:00,46.7,38.5,30.11,West,279,0.0,0.0,73,0.00,,CLR,0.00,VWS V14.01,2013-02-05 04:04:00,
2013-02-04 23:09:00,45.9,38.8,30.11,West,279,0.0,0.0,76,0.00,,CLR,0.00,VWS V14.01,2013-02-05 04:09:00,
2013-02-04 23:14:00,45.5,38.7,30.11,West,279,0.0,0.0,77,0.00,,CLR,0.00,VWS V14.01,2013-02-05 04:14:00,
2013-02-04 23:19:00,45.4,38.6,30.11,West,279,0.0,0.0,77,0.00,,CLR,0.00,VWS V14.01,2013-02-05 04:19:00,
2013-02-04 23:24:00,46.0,38.9,30.10,West,279,0.0,0.0,76,0.00,,CLR,0.00,VWS V14.01,2013-02-05 04:24:00,
2013-02-04 23:29:00,45.9,38.8,30.10,West,279,0.0,0.0,76,0.00,,CLR,0.00,VWS V14.01,2013-02-05 04:29:00,
2013-02-04 23:34:00,45.6,37.8,30.10,West,279,0.0,0.0,74,0.00,,CLR,0.00,VWS V14.01,2013-02-05 04:34:00,
2013-02-04 23:39:00,45.8,38.3,30.10,West,279,0.0,0.0,75,0.00,,CLR,0.00,VWS V14.01,2013-02-05 04:39:00,
2013-02-04 23:44:00,45.7,38.6,30.10,West,279,0.0,0.0,76,0.00,,CLR,0.00,VWS V14.01,2013-02-05 04:44:00,
2013-02-04 23:49:00,45.1,38.0,30.10,West,279,0.0,0.0,76,0.00,,CLR,0.00,VWS V14.01,2013-02-05 04:49:00,
2013-02-04 23:54:00,45.0,38.2,30.10,West,279,0.0,0.0,77,0.00,,CLR,0.00,VWS V14.01,2013-02-05 04:54:00,
2013-02-04 23:59:00,44.4,38.3,30.10,West,279,0.0,0.0,79,0.00,,CLR,0.00,VWS V14.01,2013-02-05 04:59:00,